Date String (YYYY-MM-DD hh:mm:ss) UTC,Instrument flags,absolute air pressure of the measurement (hPa),sample flow rate (lpm),inlet stack bypass flow (lpm),air temperature of the measurement (°C),ambient temperature measured by the external sensor (°C),aerosol sample conditioner tube jacket temperature (°C),OPC LED temperature (°C),internal box temperature (°C),relative humidity of the measurement (%),span deviation,mass concentration of particles derived from Lorenz-Mie calculation of OPC scattering (μg/m³),mass concentration of particles derived from Lorenz-Mie calculation of OPC scattering (μg/m³),mass concentration of particles derived from Lorenz-Mie calculation of OPC scattering (μg/m³)
DateTimeUTC,F1_M11,P_M11,Q1_M11,Q2_M11,T1_M11,T2_M11,T3_M11,T4_M11,T5_M11,U1_M11,ZSPAN_M11,X0_M11,X2_M11,X1_M11
2023-11-16 04:00:00,SystemResetWarning,0827.1,5.01,000.00,027.6,026.5,000.0,035.9,029.0,7.0,0000.0,0009.15,0003.08,0002.11
2023-11-16 04:01:00,SystemResetWarning,0827.2,5.00,000.00,027.6,026.5,000.0,035.9,029.0,7.0,0000.0,0009.12,0003.09,0002.11
2023-11-16 04:02:00,SystemResetWarning,0827.1,4.99,000.00,027.6,026.5,000.0,035.9,028.9,7.1,0000.0,0009.47,0003.12,0002.12
2023-11-16 04:03:00,SystemResetWarning,0827.1,5.00,000.00,027.5,026.4,000.0,035.9,028.9,7.1,0000.0,0009.46,0003.11,0002.12
2023-11-16 04:04:00,SystemResetWarning,0827.2,5.00,000.00,027.5,026.4,000.0,035.9,029.0,7.1,0000.0,0009.92,0003.11,0002.13
2023-11-16 04:05:00,SystemResetWarning,0827.2,5.01,000.00,027.5,026.4,000.0,035.9,028.9,7.1,0000.0,0010.23,0003.06,0002.13
2023-11-16 04:06:00,SystemResetWarning,0827.2,5.01,000.00,027.5,026.4,000.0,035.9,028.9,7.0,0000.0,0010.12,0003.02,0002.12
2023-11-16 04:07:00,SystemResetWarning,0827.2,5.00,000.00,027.5,026.4,000.0,035.9,028.9,7.0,0000.0,0011.04,0003.05,0002.10
2023-11-16 04:08:00,SystemResetWarning,0827.2,5.01,000.00,027.5,026.4,000.0,035.9,028.9,7.1,0000.0,0010.57,0003.01,0002.10
2023-11-16 04:09:00,SystemResetWarning,0827.2,4.99,000.00,027.5,026.3,000.0,035.9,028.9,7.1,0000.0,0009.97,0002.99,0002.11
2023-11-16 04:10:00,SystemResetWarning,0827.2,4.98,000.00,027.5,026.3,000.0,035.9,028.9,7.1,0000.0,0009.59,0003.01,0002.12
2023-11-16 04:11:00,SystemResetWarning,0827.2,5.01,000.00,027.5,026.3,000.0,035.9,028.9,7.1,0000.0,0008.74,0002.96,0002.12
2023-11-16 04:12:00,SystemResetWarning,0827.2,5.01,000.00,027.5,026.3,000.0,035.9,028.9,7.1,0000.0,0008.52,0002.94,0002.13
2023-11-16 04:13:00,SystemResetWarning,0827.2,5.00,000.00,027.5,026.3,000.0,035.9,028.9,7.0,0000.0,0008.21,0002.93,0002.13
2023-11-16 04:14:00,SystemResetWarning,0827.2,4.99,000.00,027.5,026.3,000.0,035.9,028.8,7.0,0000.0,0009.26,0002.94,0002.13
2023-11-16 04:15:00,SystemResetWarning,0827.2,4.99,000.00,027.5,026.3,000.0,035.9,028.8,7.0,0000.0,0009.06,0002.96,0002.12
2023-11-16 04:16:00,SystemResetWarning,0827.2,4.99,000.00,027.5,026.3,000.0,035.9,028.9,7.0,0000.0,0009.13,0002.97,0002.11
2023-11-16 04:17:00,SystemResetWarning,0827.2,5.01,000.00,027.5,026.3,000.0,035.9,028.9,7.0,0000.0,0009.60,0002.94,0002.09
2023-11-16 04:18:00,SystemResetWarning,0827.2,5.01,000.00,027.5,026.2,000.0,035.9,028.8,7.1,0000.0,0009.37,0002.91,0002.11
2023-11-16 04:19:00,SystemResetWarning,0827.2,5.00,000.00,027.5,026.2,000.0,035.9,028.8,7.1,0000.0,0009.54,0002.87,0002.10
2023-11-16 04:20:00,SystemResetWarning,0827.1,5.00,000.00,027.4,026.2,000.0,035.9,028.8,7.1,0000.0,0009.56,0002.86,0002.10
2023-11-16 04:21:00,SystemResetWarning,0827.2,4.99,000.00,027.4,026.2,000.0,035.9,028.7,7.1,0000.0,0009.16,0002.83,0002.10
2023-11-16 04:22:00,SystemResetWarning,0827.1,4.99,000.00,027.4,026.2,000.0,035.9,028.8,7.1,0000.0,0009.70,0002.88,0002.08
2023-11-16 04:23:00,SystemResetWarning,0827.1,4.99,000.00,027.4,026.2,000.0,035.9,028.7,7.1,0000.0,0009.98,0002.93,0002.07
2023-11-16 04:24:00,SystemResetWarning,0827.1,5.00,000.00,027.4,026.2,000.0,035.9,028.8,7.1,0000.0,0010.28,0002.95,0002.08
2023-11-16 04:25:00,SystemResetWarning,0827.1,5.01,000.00,027.4,026.2,000.0,035.8,028.9,7.2,0000.0,0009.40,0002.99,0002.07
2023-11-16 04:26:00,SystemResetWarning,0827.1,5.00,000.00,027.4,026.2,000.0,035.8,028.8,7.2,0000.0,0009.75,0003.07,0002.07
2023-11-16 04:27:00,SystemResetWarning,0827.1,5.00,000.00,027.4,026.2,000.0,035.8,028.8,7.2,0000.0,0009.39,0003.07,0002.08
2023-11-16 04:28:00,SystemResetWarning,0827.1,5.00,000.00,027.4,026.1,000.0,035.8,028.7,7.2,0000.0,0009.05,0003.12,0002.11
2023-11-16 04:29:00,SystemResetWarning,0827.1,4.99,000.00,027.4,026.1,000.0,035.8,028.8,7.2,0000.0,0008.93,0003.13,0002.10
2023-11-16 04:30:00,SystemResetWarning,0827.1,4.99,000.00,027.3,026.1,000.0,035.8,028.8,7.2,0000.0,0009.00,0003.14,0002.11
2023-11-16 04:31:00,SystemResetWarning,0827.1,5.00,000.00,027.3,026.1,000.0,035.8,028.7,7.2,0000.0,0009.17,0003.15,0002.12
2023-11-16 04:32:00,SystemResetWarning,0827.1,5.01,000.00,027.3,026.1,000.0,035.8,028.7,7.2,0000.0,0009.25,0003.15,0002.12
2023-11-16 04:33:00,SystemResetWarning,0827.1,5.01,000.00,027.3,026.1,000.0,035.8,028.7,7.2,0000.0,0008.68,0003.13,0002.14
2023-11-16 04:34:00,SystemResetWarning,0827.0,5.01,000.00,027.3,026.1,000.0,035.8,028.7,7.2,0000.0,0008.46,0003.10,0002.14
2023-11-16 04:35:00,SystemResetWarning,0827.0,5.00,000.00,027.3,026.1,000.0,035.8,028.7,7.2,0000.0,0008.95,0003.10,0002.13
2023-11-16 04:36:00,SystemResetWarning,0827.0,5.00,000.00,027.3,026.1,000.0,035.8,028.7,7.2,0000.0,0009.45,0003.10,0002.14
2023-11-16 04:37:00,SystemResetWarning,0826.9,5.00,000.00,027.3,026.1,000.0,035.8,028.6,7.2,0000.0,0009.09,0003.01,0002.13
2023-11-16 04:38:00,SystemResetWarning,0827.0,5.00,000.00,027.3,026.1,000.0,035.8,028.7,7.2,0000.0,0009.23,0003.02,0002.12
2023-11-16 04:39:00,SystemResetWarning,0826.9,5.00,000.00,027.3,026.1,000.0,035.7,028.7,7.2,0000.0,0009.12,0002.97,0002.11
2023-11-16 04:40:00,SystemResetWarning,0826.9,5.00,000.00,027.3,026.1,000.0,035.7,028.7,7.2,0000.0,0009.26,0002.96,0002.12
2023-11-16 04:41:00,SystemResetWarning,0826.8,5.00,000.00,027.3,026.1,000.0,035.7,028.7,7.2,0000.0,0009.67,0002.98,0002.12
2023-11-16 04:42:00,SystemResetWarning,0826.8,5.00,000.00,027.3,026.1,000.0,035.7,028.7,7.3,0000.0,0010.02,0003.02,0002.14
2023-11-16 04:43:00,SystemResetWarning,0826.8,5.00,000.00,027.3,026.1,000.0,035.7,028.6,7.3,0000.0,0010.38,0003.01,0002.13
2023-11-16 04:44:00,SystemResetWarning,0826.8,5.00,000.00,027.3,026.1,000.0,035.7,028.6,7.3,0000.0,0010.75,0003.02,0002.15
2023-11-16 04:45:00,SystemResetWarning,0826.8,5.00,000.00,027.3,026.1,000.0,035.7,028.7,7.3,0000.0,0010.79,0003.02,0002.15
2023-11-16 04:46:00,SystemResetWarning,0826.8,5.00,000.00,027.2,026.1,000.0,035.7,028.6,7.3,0000.0,0010.49,0003.01,0002.15
2023-11-16 04:47:00,SystemResetWarning,0826.8,5.00,000.00,027.2,026.1,000.0,035.7,028.6,7.3,0000.0,0010.19,0003.03,0002.15
2023-11-16 04:48:00,SystemResetWarning,0826.8,5.00,000.00,027.2,026.1,000.0,035.7,028.6,7.4,0000.0,0010.16,0003.03,0002.17
2023-11-16 04:49:00,SystemResetWarning,0826.8,5.00,000.00,027.2,026.1,000.0,035.7,028.6,7.4,0000.0,0010.30,0003.06,0002.18
2023-11-16 04:50:00,SystemResetWarning,0826.8,5.00,000.00,027.2,026.1,000.0,035.7,028.7,7.4,0000.0,0010.80,0003.07,0002.18
2023-11-16 04:51:00,SystemResetWarning,0826.8,5.00,000.00,027.2,026.1,000.0,035.7,028.7,7.4,0000.0,0010.34,0003.09,0002.17
2023-11-16 04:52:00,SystemResetWarning,0826.8,5.00,000.00,027.2,026.1,000.0,035.7,028.6,7.3,0000.0,0009.37,0003.08,0002.18
2023-11-16 04:53:00,SystemResetWarning,0826.8,5.00,000.00,027.2,026.1,000.0,035.7,028.6,7.4,0000.0,0009.01,0003.12,0002.17
2023-11-16 04:54:00,SystemResetWarning,0826.8,5.00,000.00,027.2,026.1,000.0,035.7,028.6,7.5,0000.0,0009.62,0003.17,0002.19
2023-11-16 04:55:00,SystemResetWarning,0826.8,5.00,000.00,027.2,026.1,000.0,035.7,028.6,7.4,0000.0,0009.62,0003.20,0002.20
2023-11-16 04:56:00,SystemResetWarning,0826.8,5.00,000.00,027.2,026.1,000.0,035.7,028.6,7.3,0000.0,0009.68,0003.27,0002.22
2023-11-16 04:57:00,SystemResetWarning,0826.8,5.00,000.00,027.2,026.0,000.0,035.6,028.6,7.3,0000.0,0009.53,0003.31,0002.25
2023-11-16 04:58:00,SystemResetWarning,0826.8,5.00,000.00,027.2,026.0,000.0,035.6,028.6,7.3,0000.0,0008.92,0003.26,0002.26
2023-11-16 04:59:00,SystemResetWarning,0826.6,5.00,000.00,027.2,026.0,000.0,035.6,028.6,7.3,0000.0,0008.70,0003.25,0002.26
